Weather History for Southport, NC

Change the Weather History Date:

Saturday, March 8, 2014

  Actual Average (KILM) Record (KILM)
Temperature  
Mean Temperature 46 °F 53 °F  
Max Temperature 61 °F 64 °F 89 °F (1974)
Min Temperature 33 °F 42 °F 24 °F (1920)
Degree Days  
Heating Degree Days 18 12  
Month to date heating degree days 105  
Since 1 July heating degree days 2034  
Cooling Degree Days 0 0  
Month to date cooling degree days 0  
Year to date cooling degree days 5  
Moisture  
Dew Point 40 °F    
Average Humidity 78    
Maximum Humidity 93    
Minimum Humidity 49    
Precipitation  
Precipitation 0.01 in 0.15 in 1.42 in (1995)
Month to date precipitation 1.12  
Year to date precipitation 8.50  
Snow  
Snow 0.00 in 0.00 in 0.30 in (1890)
Month to date snowfall 0.0  
Since 1 July snowfall 1.5  
Snow Depth -    
Sea Level Pressure  
Sea Level Pressure 30.05 in    
Wind  
Wind Speed 8 mph (WNW)    
Max Wind Speed 14 mph    
Max Gust Speed 20 mph    
Visibility 10 miles    
Events      
T = Trace of Precipitation, MM = Missing Value Source: NWS Daily Summary

Daily Weather History Graph

Daily Weather History Graph

Search for Another Location

Airport:

Trip Planner

Search our weather history database for the weather conditions in past years. The results will help you decide how hot, cold, wet, or windy it might be!

Date:

Astronomy

Mar. 08, 2014 Rise Set
Actual Time 6:32 AM EST 6:14 PM EST
Civil Twilight 6:07 AM EST 6:39 PM EST
Nautical Twilight 5:38 AM EST 7:08 PM EST
Astronomical Twilight 5:09 AM EST 7:37 PM EST
Moon 11:28 AM EST (3/8) 12:54 AM EST (3/8)
Length of Visible Light 12h 32m
Length of Day
11h 42m
First Quarter, 51% of the Moon is Illuminated
Mar 8
First Quarter
Mar 16
Full
Mar 23
Last Quarter
Mar 30
New
Apr 7
First Quarter

Hourly Weather History & Observations

Time (EST) Temp. Windchill Dew Point Humidity Pressure Visibility Wind Dir Wind Speed Gust Speed Precip Events Conditions
12:15 AM 38.1 °F 29.8 °F 34.7 °F 87% 29.93 in 10.0 mi NNW 13.8 mph - N/A   Clear
12:35 AM 37.6 °F 29.1 °F 34.0 °F 87% 29.93 in 10.0 mi NNW 13.8 mph - N/A   Clear
12:55 AM 37.6 °F 30.0 °F 34.0 °F 87% 29.94 in 10.0 mi NNW 11.5 mph 18.4 mph N/A   Scattered Clouds
1:15 AM 37.8 °F 30.2 °F 33.8 °F 86% 29.96 in 10.0 mi NNW 11.5 mph 18.4 mph N/A   Mostly Cloudy
1:35 AM 37.6 °F 30.5 °F 33.4 °F 85% 29.96 in 10.0 mi NNW 10.4 mph - N/A   Scattered Clouds
1:55 AM 37.4 °F 31.4 °F 33.3 °F 85% 29.96 in 10.0 mi NNW 8.1 mph - N/A   Clear
2:15 AM 37.4 °F 29.8 °F 33.8 °F 87% 29.97 in 10.0 mi NNW 11.5 mph - N/A   Clear
2:35 AM 37.4 °F 32.1 °F 33.3 °F 85% 29.98 in 10.0 mi NW 6.9 mph - N/A   Clear
2:55 AM 37.0 °F 31.6 °F 33.3 °F 86% 29.98 in 10.0 mi NW 6.9 mph - N/A   Clear
3:15 AM 36.5 °F 32.7 °F 32.9 °F 87% 29.98 in 10.0 mi NW 4.6 mph - N/A   Clear
3:35 AM 36.1 °F 31.4 °F 32.9 °F 88% 29.99 in 10.0 mi NW 5.8 mph - N/A   Clear
3:55 AM 36.0 °F 32.1 °F 32.7 °F 88% 29.99 in 10.0 mi NNW 4.6 mph - N/A   Clear
4:15 AM 35.6 °F 30.7 °F 32.2 °F 87% 30.00 in 10.0 mi NNW 5.8 mph - N/A   Clear
4:35 AM 35.6 °F 29.9 °F 32.2 °F 87% 30.00 in 10.0 mi North 6.9 mph - N/A   Clear
4:55 AM 35.6 °F 31.7 °F 32.0 °F 87% 30.00 in 10.0 mi NNW 4.6 mph - N/A   Clear
5:15 AM 34.9 °F 29.9 °F 32.0 °F 89% 30.01 in 10.0 mi NW 5.8 mph - N/A   Clear
5:35 AM 34.7 °F 30.6 °F 32.0 °F 90% 30.02 in 10.0 mi NNW 4.6 mph - N/A   Clear
5:55 AM 34.3 °F 30.2 °F 32.0 °F 91% 30.04 in 10.0 mi WNW 4.6 mph - N/A   Clear
6:15 AM 33.8 °F 30.8 °F 31.8 °F 92% 30.04 in 10.0 mi NW 3.5 mph - N/A   Clear
6:35 AM 33.8 °F - 31.8 °F 92% 30.04 in 10.0 mi Calm Calm - N/A   Clear
6:55 AM 33.8 °F 30.8 °F 31.8 °F 92% 30.04 in 10.0 mi NNW 3.5 mph - N/A   Clear
7:15 AM 34.3 °F 31.4 °F 32.0 °F 91% 30.05 in 10.0 mi NW 3.5 mph - N/A   Clear
7:35 AM 35.6 °F 30.7 °F 32.0 °F 87% 30.07 in 10.0 mi NW 5.8 mph - N/A   Clear
7:55 AM 37.8 °F 32.5 °F 32.4 °F 81% 30.07 in 10.0 mi North 6.9 mph - N/A   Clear
8:15 AM 40.6 °F 35.4 °F 32.9 °F 74% 30.09 in 10.0 mi NNW 8.1 mph - N/A   Clear
8:35 AM 42.4 °F 37.0 °F 33.4 °F 70% 30.10 in 10.0 mi NNW 9.2 mph - N/A   Clear
8:55 AM 44.8 °F 39.9 °F 34.7 °F 68% 30.11 in 10.0 mi NNW 9.2 mph - N/A   Clear
9:15 AM 47.5 °F - 36.1 °F 65% 30.10 in 10.0 mi NNW 5.8 mph - N/A   Clear
9:35 AM 49.5 °F - 36.3 °F 61% 30.11 in 10.0 mi North 8.1 mph - N/A   Clear
9:55 AM 52.0 °F - 37.4 °F 58% 30.10 in 10.0 mi NNW 9.2 mph 17.3 mph N/A   Clear
10:15 AM 53.1 °F - 37.9 °F 57% 30.11 in 10.0 mi NNW 12.7 mph 18.4 mph N/A   Clear
10:35 AM 53.8 °F - 38.5 °F 56% 30.11 in 10.0 mi NW 11.5 mph 19.6 mph N/A   Clear
10:55 AM 55.6 °F - 39.6 °F 55% 30.11 in 10.0 mi WNW 13.8 mph 18.4 mph N/A   Clear
11:15 AM 56.8 °F - 40.6 °F 55% 30.11 in 10.0 mi WNW 10.4 mph 17.3 mph N/A   Clear
11:35 AM 57.9 °F - 41.0 °F 53% 30.10 in 10.0 mi NW 6.9 mph - N/A   Clear
11:55 AM 58.1 °F - 40.5 °F 52% 30.09 in 10.0 mi West 9.2 mph - N/A   Clear
12:15 PM 60.1 °F - 41.9 °F 51% 30.08 in 10.0 mi WNW 3.5 mph - N/A   Clear
12:35 PM 60.6 °F - 41.4 °F 49% 30.08 in 10.0 mi WNW 4.6 mph 10.4 mph N/A   Clear
12:55 PM 57.9 °F - 45.1 °F 62% 30.07 in 10.0 mi SW 9.2 mph - N/A   Clear
1:15 PM 57.6 °F - 44.6 °F 62% 30.06 in 10.0 mi SW 10.4 mph - N/A   Clear
1:35 PM 57.7 °F - 44.8 °F 62% 30.06 in 10.0 mi SW 10.4 mph - N/A   Clear
1:55 PM 56.8 °F - 44.2 °F 63% 30.05 in 10.0 mi SW 9.2 mph - N/A   Clear
2:15 PM 56.8 °F - 44.6 °F 64% 30.04 in 10.0 mi SW 9.2 mph - N/A   Clear
2:35 PM 57.2 °F - 44.8 °F 63% 30.03 in 10.0 mi WSW 10.4 mph - N/A   Clear
2:55 PM 57.2 °F - 44.8 °F 63% 30.03 in 10.0 mi SW 10.4 mph - N/A   Clear
3:15 PM 56.8 °F - 44.6 °F 64% 30.03 in 10.0 mi SW 9.2 mph - N/A   Clear
3:35 PM 57.0 °F - 44.6 °F 63% 30.03 in 10.0 mi WSW 9.2 mph - N/A   Clear
3:55 PM 57.2 °F - 45.0 °F 64% 30.03 in 10.0 mi SW 8.1 mph - N/A   Clear
4:15 PM 56.7 °F - 45.1 °F 65% 30.04 in 10.0 mi SW 9.2 mph - N/A   Clear
4:35 PM 56.5 °F - 45.3 °F 66% 30.04 in 10.0 mi SW 6.9 mph - N/A   Clear
4:55 PM 55.6 °F - 45.5 °F 69% 30.04 in 10.0 mi SW 8.1 mph - N/A   Clear
5:15 PM 54.9 °F - 45.5 °F 71% 30.05 in 10.0 mi SW 5.8 mph - N/A   Clear
5:35 PM 54.1 °F - 45.9 °F 74% 30.05 in 10.0 mi SW 8.1 mph - N/A   Clear
5:55 PM 53.1 °F - 46.0 °F 77% 30.05 in 10.0 mi WSW 5.8 mph - N/A   Clear
6:15 PM 52.2 °F - 46.2 °F 80% 30.05 in 10.0 mi West 4.6 mph - N/A   Clear
6:40 PM 51.1 °F - 46.8 °F 85% 30.06 in 10.0 mi West 4.6 mph - N/A   Clear
6:55 PM 51.1 °F - 47.1 °F 86% 30.07 in 10.0 mi West 4.6 mph - N/A   Clear
7:15 PM 51.3 °F - 47.7 °F 87% 30.07 in 10.0 mi West 4.6 mph - N/A   Clear
7:35 PM 50.9 °F - 48.0 °F 90% 30.08 in 10.0 mi WSW 6.9 mph - N/A   Clear
7:55 PM 51.1 °F - 48.0 °F 89% 30.08 in 10.0 mi West 3.5 mph - N/A   Clear
8:15 PM 50.4 °F - 47.5 °F 90% 30.08 in 10.0 mi WSW 3.5 mph - N/A   Clear
8:35 PM 50.0 °F - 47.5 °F 91% 30.08 in 10.0 mi WSW 5.8 mph - N/A   Clear
8:55 PM 50.0 °F - 47.5 °F 91% 30.07 in 10.0 mi SW 4.6 mph - N/A   Clear
9:15 PM 49.5 °F - 47.5 °F 93% 30.08 in 10.0 mi WSW 3.5 mph - N/A   Clear
9:35 PM 49.6 °F - 47.3 °F 92% 30.08 in 10.0 mi WSW 3.5 mph - N/A   Clear
9:55 PM 49.5 °F - 46.8 °F 90% 30.08 in 10.0 mi SW 3.5 mph - N/A   Clear
10:15 PM 49.3 °F - 46.6 °F 90% 30.07 in 10.0 mi WSW 4.6 mph - N/A   Clear
10:35 PM 49.3 °F - 46.8 °F 91% 30.07 in 10.0 mi SW 3.5 mph - N/A   Clear
10:55 PM 49.1 °F - 46.6 °F 91% 30.07 in 10.0 mi SW 3.5 mph - N/A   Clear
11:20 PM 48.7 °F - 46.6 °F 92% 30.06 in 10.0 mi WSW 4.6 mph - N/A   Clear
11:35 PM 48.7 °F - 46.6 °F 92% 30.06 in 10.0 mi SW 4.6 mph - N/A   Clear
11:55 PM 48.7 °F - 46.8 °F 93% 30.06 in 10.0 mi WSW 5.8 mph - N/A   Clear